This is the latest recevied weather packets stored in our database for station/object IZ1MEU-13. If no packets are shown the sender has not sent any weather packets the latest 10 day(s).
| Time | Temp. | Humidity | Pressure | Rain* | Wind** | Luminosity | Snow |
|---|---|---|---|---|---|---|---|
| 1788417450 | 21.67° C | 50% | 1023.5 hPa | - | - | - | - |
| 1788416246 | 21.11° C | 51% | 1023.3 hPa | - | - | - | - |
| 1788415043 | 21.11° C | 52% | 1023.2 hPa | - | - | - | - |
| 1788413839 | 20.56° C | 52% | 1023 hPa | - | - | - | - |
| 1788412636 | 20.56° C | 53% | 1022.7 hPa | - | - | - | - |
| 1788411432 | 20° C | 53% | 1022.4 hPa | - | - | - | - |
| 1788410229 | 20.56° C | 52% | 1022.3 hPa | - | - | - | - |
| 1788409037 | 20.56° C | 52% | 1022.3 hPa | - | - | - | - |
| 1788407822 | 20.56° C | 52% | 1022.3 hPa | - | - | - | - |
| 1788406618 | 20.56° C | 52% | 1022.3 hPa | - | - | - | - |
| 1788405415 | 20.56° C | 52% | 1022.4 hPa | - | - | - | - |
| 1788404211 | 21.11° C | 51% | 1022.3 hPa | - | - | - | - |
| 1788403008 | 21.11° C | 51% | 1022.3 hPa | - | - | - | - |
| 1788401804 | 21.11° C | 51% | 1022.3 hPa | - | - | - | - |
| 1788400601 | 21.11° C | 51% | 1022.3 hPa | - | - | - | - |
| 1788399397 | 21.67° C | 52% | 1022.3 hPa | - | - | - | - |
| 1788398194 | 21.67° C | 52% | 1022.3 hPa | - | - | - | - |
| 1788396990 | 21.67° C | 52% | 1022.3 hPa | - | - | - | - |
| 1788395787 | 21.67° C | 52% | 1022.2 hPa | - | - | - | - |
| 1788394583 | 21.67° C | 52% | 1022.2 hPa | - | - | - | - |
| 1788393380 | 21.67° C | 52% | 1022.1 hPa | - | - | - | - |
| 1788392176 | 21.11° C | 52% | 1022.2 hPa | - | - | - | - |
| 1788390973 | 21.11° C | 53% | 1022.1 hPa | - | - | - | - |
| 1788389769 | 21.67° C | 52% | 1022 hPa | - | - | - | - |
| 1788388566 | 21.67° C | 52% | 1022 hPa | - | - | - | - |
* Rain since midnight (hover to see other rain measurements)
** Current wind speed in m/s (hover to see current wind gust speed)